| time (UTC) | temp C | wind direction | speed KPH | gust KPH | rain 1hr cm | rain 24hr cm | rain mn cm | humidity % | barometer mb |
| 20260504181513 | 20 | 259 | 22.5 | 33.8 | 0.00 | 0.00 | 0.00 | 37 | 999.2 |
| 20260504180012 | 19 | 256 | 25.7 | 37.0 | 0.00 | 0.00 | 0.00 | 39 | 999.0 |
| 20260504174512 | 19 | 240 | 20.9 | 29.0 | 0.00 | 0.00 | 0.00 | 42 | 998.9 |
| 20260504173010 | 19 | 257 | 17.7 | 25.7 | 0.00 | 0.00 | 0.00 | 45 | 998.8 |
| 20260504171510 | 20 | 267 | 16.1 | 33.8 | 0.00 | 0.00 | 0.00 | 44 | 998.8 |
| 20260504081554 | 9 | 170 | 0.0 | 6.4 | 0.00 | 0.00 | 0.00 | 61 | 1000.9 |
| 20260504050015 | 11 | 189 | 0.0 | 6.4 | 0.00 | 0.00 | 0.00 | 49 | 1003.6 |
| 20260504044516 | 11 | 193 | 0.0 | 6.4 | 0.00 | 0.00 | 0.00 | 48 | 1003.8 |
| 20260504043011 | 12 | 238 | 0.0 | 0.0 | 0.00 | 0.00 | 0.00 | 47 | 1004.0 |
| 20260504041609 | 12 | 239 | 0.0 | 0.0 | 0.00 | 0.00 | 0.00 | 46 | 1004.2 |
| 20260504040010 | 12 | 241 | 0.0 | 0.0 | 0.00 | 0.00 | 0.00 | 47 | 1004.5 |
| 20260504034507 | 12 | 241 | 0.0 | 0.0 | 0.00 | 0.00 | 0.00 | 46 | 1004.6 |
| 20260504033006 | 13 | 241 | 0.0 | 0.0 | 0.00 | 0.00 | 0.00 | 46 | 1004.8 |
| 20260504031504 | 13 | 241 | 0.0 | 0.0 | 0.00 | 0.00 | 0.00 | 45 | 1004.9 |
| 20260504030004 | 13 | 241 | 0.0 | 0.0 | 0.00 | 0.00 | 0.00 | 44 | 1004.9 |
| 20260504024504 | 13 | 242 | 0.0 | 0.0 | 0.00 | 0.00 | 0.00 | 43 | 1004.9 |
| 20260504023003 | 13 | 242 | 0.0 | 0.0 | 0.00 | 0.00 | 0.00 | 44 | 1004.9 |
| 20260504021501 | 14 | 242 | 0.0 | 0.0 | 0.00 | 0.00 | 0.00 | 46 | 1004.9 |
| 20260504020001 | 15 | 242 | 0.0 | 0.0 | 0.00 | 0.00 | 0.00 | 39 | 1005.0 |
| 20260504014604 | 16 | 242 | 0.0 | 0.0 | 0.00 | 0.00 | 0.00 | 40 | 1004.9 |
| 20260504013112 | 17 | 242 | 0.0 | 1.6 | 0.00 | 0.00 | 0.00 | 40 | 1005.0 |
| 20260504011559 | 17 | 242 | 0.0 | 0.0 | 0.00 | 0.00 | 0.00 | 41 | 1005.0 |
| 20260504010114 | 18 | 242 | 1.6 | 6.4 | 0.00 | 0.00 | 0.00 | 47 | 1005.0 |
| 20260504004557 | 18 | 246 | 4.8 | 12.9 | 0.00 | 0.00 | 0.00 | 49 | 1005.1 |
| 20260504003055 | 18 | 246 | 8.0 | 16.1 | 0.00 | 0.00 | 0.00 | 46 | 1005.0 |
| 20260504001602 | 19 | 253 | 12.9 | 19.3 | 0.00 | 0.00 | 0.00 | 41 | 1005.0 |
| 20260504000057 | 20 | 242 | 16.1 | 30.6 | 0.00 | 0.00 | 0.00 | 35 | 1005.0 |
| 20260503234553 | 20 | 251 | 22.5 | 32.2 | 0.00 | 0.00 | 0.00 | 39 | 1005.0 |
| 20260503233100 | 20 | 242 | 14.5 | 27.4 | 0.00 | 0.00 | 0.00 | 38 | 1005.3 |
| 20260503231550 | 20 | 269 | 12.9 | 24.1 | 0.00 | 0.00 | 0.00 | 35 | 1005.2 |
| 20260503230049 | 20 | 247 | 20.9 | 27.4 | 0.00 | 0.00 | 0.00 | 33 | 1005.3 |
| 20260503224549 | 20 | 246 | 14.5 | 32.2 | 0.00 | 0.00 | 0.00 | 37 | 1005.4 |
| 20260503223048 | 21 | 261 | 11.3 | 32.2 | 0.00 | 0.00 | 0.00 | 34 | 1005.3 |
| 20260503221650 | 20 | 251 | 19.3 | 27.4 | 0.00 | 0.00 | 0.00 | 36 | 1005.3 |
| 20260503220057 | 20 | 261 | 19.3 | 25.7 | 0.00 | 0.00 | 0.00 | 33 | 1005.2 |
| 20260503214545 | 21 | 248 | 17.7 | 30.6 | 0.00 | 0.00 | 0.00 | 31 | 1005.4 |
| 20260503213043 | 21 | 280 | 16.1 | 33.8 | 0.00 | 0.00 | 0.00 | 36 | 1005.5 |
| 20260503211542 | 20 | 253 | 20.9 | 33.8 | 0.00 | 0.00 | 0.00 | 32 | 1005.5 |
| 20260503210050 | 21 | 259 | 19.3 | 35.4 | 0.00 | 0.00 | 0.00 | 35 | 1005.6 |
| 20260503204555 | 21 | 272 | 19.3 | 33.8 | 0.00 | 0.00 | 0.00 | 35 | 1005.7 |
| 20260503203038 | 21 | 255 | 19.3 | 33.8 | 0.00 | 0.00 | 0.00 | 34 | 1005.8 |
| 20260503201538 | 20 | 255 | 19.3 | 35.4 | 0.00 | 0.00 | 0.00 | 37 | 1005.9 |
| 20260503200043 | 20 | 265 | 19.3 | 33.8 | 0.00 | 0.00 | 0.00 | 35 | 1005.9 |
| 20260503194534 | 20 | 284 | 17.7 | 33.8 | 0.00 | 0.00 | 0.00 | 38 | 1006.0 |
| 20260503193034 | 21 | 269 | 25.7 | 38.6 | 0.00 | 0.00 | 0.00 | 35 | 1005.9 |
| 20260503191530 | 20 | 280 | 22.5 | 33.8 | 0.00 | 0.00 | 0.00 | 34 | 1006.0 |
| 20260503190042 | 20 | 280 | 25.7 | 37.0 | 0.00 | 0.00 | 0.00 | 35 | 1006.2 |
| 20260503184529 | 20 | 271 | 29.0 | 37.0 | 0.00 | 0.00 | 0.00 | 36 | 1006.1 |
| 20260503183025 | 20 | 284 | 16.1 | 35.4 | 0.00 | 0.00 | 0.00 | 39 | 1006.3 |
| 20260503181521 | 19 | 252 | 20.9 | 40.2 | 0.00 | 0.00 | 0.00 | 40 | 1006.4 |